SCP
0 0 0 0 0 0 0 0 0 0 0 0 0 0 -0 0 0 0 0 0 0 0 0 -0 -0 -0 1 1 1 2 1 0 0 0 0 0 0 0 0 0 0 0 0 0
0 0 0 0 0 0 0 0 0 0 0 0 0 -0 -0 -0 0 0 0 -0 -0 0 0 0 -0 -0 0 1 1 1 1 1 1 0 0 0 0 0 0 0 0 0 0 0
0 0 0 0 0 0 0 0 0 0 -0 -0 0 -0 -0 -0 0 0 0 0 -0 -0 -0 0 0 0 1 1 1 1 2 1 0 1 0 0 0 0 0 0 0 0 0 0
0 0 0 0 0 0 0 0 0 0 -0 0 0 -0 0 0 0 0 0 0 -0 0 0 0 0 0 1 1 2 1 2 2 1 1 1 1 0 1 1 1 1 1 1 0
0 0 0 0 0 0 0 0 0 0 0 0 0 0 0 0 0 0 0 0 0 0 0 0 0 0 1 1 2 2 1 3 2 0 1 2 0 1 1 2 1 2 0 0
0 0 0 0 0 0 0 0 0 0 0 0 0 0 -0 0 0 0 0 0 0 0 0 0 0 0 1 2 1 3 2 2 2 0 1 2 1 2 2 1 1 0 0 0
0 0 0 0 0 0 0 0 -0 -0 0 0 0 0 0 0 0 0 0 0 0 0 0 0 0 0 0 2 3 3 2 2 2 0 1 2 2 1 2 1 1 0 0 0
0 -0 0 0 0 -0 -0 0 0 0 0 0 0 0 0 0 0 0 0 0 0 0 0 0 0 0 0 2 4 3 3 1 1 1 2 2 1 2 2 1 0 0 0 0
0 0 0 -0 -0 0 0 0 0 0 0 -0 -0 0 0 0 0 0 0 0 0 0 0 0 0 0 0 1 2 3 2 2 1 2 2 2 2 1 1 0 0 0 0 0
0 -0 0 0 0 0 0 0 0 0 -0 -0 0 0 0 0 0 0 0 0 0 0 0 0 0 0 0 0 2 3 2 2 2 2 3 4 2 1 0 0 0 0 0 0
0 0 0 0 0 0 0 0 0 0 0 0 -0 0 0 0 0 0 0 0 0 0 0 0 0 0 0 0 2 2 4 3 1 2 2 3 1 0 0 0 0 0 0 0
0 0 0 0 0 0 0 -0 0 0 0 0 0 0 0 0 0 0 -0 0 0 0 0 0 0 0 0 0 2 3 3 4 2 2 2 2 0 0 0 0 0 0 0 0
0 0 0 0 0 0 0 0 0 0 0 0 0 0 0 0 0 0 0 0 0 0 0 0 0 0 0 0 2 2 5 5 3 5 2 1 0 0 0 0 0 0 0 0
0 0 0 0 0 0 0 0 0 0 0 0 0 0 0 0 0 0 0 -0 -0 -0 0 0 0 1 0 0 1 3 5 8 5 5 2 2 1 0 0 0 0 0 0 0
0 0 0 0 0 0 0 0 0 0 0 0 0 -0 0 0 0 0 0 -0 -0 -0 0 0 0 1 1 0 1 5 4 6 5 3 2 1 0 0 0 0 0 0 0 0
0 0 0 0 0 0 0 0 0 0 0 0 0 -0 -0 -0 0 0 0 -0 -0 -0 0 0 0 1 1 1 2 4 3 4 5 3 1 0 0 0 0 0 0 0 0 0
0 0 -0 0 0 0 0 0 0 0 0 0 0 -0 -0 0 0 0 0 -0 -0 -0 0 0 0 0 0 1 1 3 3 2 3 1 0 0 0 0 0 0 0 0 0 0
0 0 0 0 0 0 0 0 0 0 0 0 -0 0 0 0 0 -0 -0 0 0 -0 0 0 0 0 0 1 1 3 3 2 1 0 0 0 0 0 0 0 0 0 0 0
0 0 0 0 0 0 0 0 0 0 -0 0 0 0 0 0 -0 -0 0 0 0 0 0 0 0 0 0 0 0 0 1 1 0 0 0 0 0 0 0 0 0 0 0 0
0 0 0 0 0 0 0 0 0 0 0 0 0 -0 -0 -0 0 0 0 0 0 0 0 0 0 0 0 0 0 0 0 0 0 0 0 0 0 0 0 0 0 0 0 0
0 0 0 0 0 0 0 0 0 0 0 -0 -0 -0 -0 -0 -0 -0 0 0 0 0 0 0 0 0 0 0 0 0 0 0 0 0 0 0 0 0 0 0 0 0 0 0
0 0 0 0 0 0 0 0 0 0 0 0 -0 -0 -0 -0 -0 -0 0 0 0 0 0 0 0 0 0 0 0 0 0 0 0 0 0 0 0 0 0 0 0 0 0 0
-0 0 0 0 0 0 0 0 0 0 0 -0 0 -0 -0 0 0 0 0 0 0 0 0 0 0 0 0 0 0 0 0 0 0 0 0 0 0 0 0 0 0 0 0 0
0 0 0 0 0 0 0 0 0 0 0 0 0 0 0 0 0 0 0 0 0 0 0 0 0 0 0 0 0 0 0 -0 -0 0 0 0 0 0 0 0 0 0 0 0
0 0 0 0 0 0 0 0 -0 -0 -0 -0 -0 -0 0 0 0 0 0 0 0 0 0 0 0 0 0 0 0 0 0 0 0 0 0 0 0 0 0 0 0 0 0 0
0 0 0 0 0 0 -0 -0 -0 -0 -0 -0 -0 -0 0 -0 0 0 0 0 0 0 0 0 0 0 0 0 0 0 0 0 0 0 0 0 0 0 0 0 0 0 -0 -0
Wind_Speed_500mb
11 5 14 24 21 31 22 28 35 31 32 33 44 50 46 35 39 35 52 57 56 53 41 30 13 6 24 28 22 41 74 81 84 77 71 69 64 54 48 44 48 52 44 37
7 13 24 20 18 21 25 32 35 28 29 27 35 52 38 29 20 45 52 54 61 63 54 33 23 15 21 35 38 46 65 79 85 79 72 68 66 57 47 47 48 51 51 45
13 20 19 24 29 28 21 22 27 24 16 18 26 56 37 28 29 40 52 64 71 71 65 57 43 32 27 37 47 56 61 76 88 81 69 65 62 54 48 46 44 48 52 50
12 13 36 29 32 23 28 9 12 20 14 25 18 35 55 23 41 32 42 55 68 73 71 67 54 40 37 31 51 64 71 69 90 86 85 85 82 77 52 44 53 49 46 51
14 26 39 21 15 4 11 8 3 13 23 9 21 12 55 16 25 24 27 57 74 74 65 50 42 37 35 42 40 63 78 82 89 96 95 89 82 85 69 70 65 59 54 43
19 49 8 8 7 5 6 7 32 9 3 14 20 29 39 25 27 14 29 48 61 68 70 68 62 51 39 49 44 51 70 78 98 96 103 87 86 81 81 81 80 65 61 51
31 6 12 7 7 10 14 13 9 9 5 13 12 18 33 13 23 20 19 37 56 63 66 62 54 48 50 56 52 44 55 81 89 101 103 91 87 80 83 78 76 66 63 57
8 26 5 7 12 19 24 14 8 12 7 9 11 17 11 23 29 41 39 37 51 59 60 51 56 52 50 61 62 51 45 78 91 105 112 101 89 88 79 79 72 70 72 64
13 16 21 37 41 11 7 8 8 11 19 16 10 13 18 26 24 16 21 33 37 48 52 39 47 61 57 60 68 65 62 70 87 103 110 110 92 84 86 80 78 76 76 68
11 35 18 9 7 18 23 8 2 6 8 11 8 8 16 18 9 8 12 16 28 28 29 40 35 43 60 68 66 77 75 64 90 96 104 108 94 91 83 77 79 84 74 64
7 12 18 15 11 9 3 5 10 7 8 7 10 8 13 20 21 11 13 21 28 35 39 31 28 26 39 57 75 74 89 74 84 97 100 95 90 92 79 78 75 75 68 45
14 9 20 18 47 19 7 10 10 7 6 9 9 27 22 12 6 5 10 19 25 33 43 45 38 29 23 48 62 81 95 74 80 93 95 89 88 84 79 75 82 71 41 36
8 7 9 8 6 9 3 4 7 13 16 34 24 15 2 11 14 14 16 29 33 41 49 55 48 33 40 35 63 84 97 82 83 87 87 85 82 84 82 75 82 55 47 44
15 4 13 21 32 21 29 32 33 27 12 28 33 55 37 38 36 27 46 41 48 49 57 57 60 48 34 40 73 86 94 88 80 83 89 94 86 86 79 82 59 57 52 61
8 8 15 32 43 43 44 45 40 38 37 30 39 31 34 39 31 26 32 42 42 46 63 57 58 52 28 47 68 84 86 82 82 81 84 89 94 92 85 66 60 69 74 71
7 8 22 33 34 44 47 44 39 38 23 25 33 48 40 34 20 29 34 49 49 52 61 60 50 37 20 46 78 91 84 78 87 89 82 88 98 93 76 88 93 92 88 79
5 6 14 15 16 38 21 5 5 5 15 18 31 48 37 29 29 29 57 55 60 58 71 65 40 29 46 67 71 67 75 73 86 98 100 107 117 110 94 97 103 96 88 82
8 6 6 15 17 9 4 6 5 15 34 36 44 39 20 19 46 69 78 72 74 60 70 54 32 25 41 57 72 70 77 84 92 106 115 125 128 119 123 129 108 96 88 81
12 3 9 8 12 35 16 3 8 18 66 32 9 22 45 77 67 81 71 73 81 74 64 40 29 34 59 69 75 82 85 79 91 114 128 129 138 142 130 114 104 97 90 82
5 10 6 8 10 10 2 9 24 30 23 6 36 59 53 48 26 38 37 21 30 50 51 41 28 49 63 81 82 88 99 103 92 89 100 137 137 139 107 99 102 97 85 82
11 9 10 16 12 16 3 27 23 9 17 51 71 70 59 37 44 84 83 73 47 44 45 43 42 67 82 90 99 98 94 110 99 84 91 138 134 125 112 115 103 95 90 78
7 10 5 7 9 12 23 24 22 20 73 78 90 76 67 73 73 61 58 35 33 51 51 50 72 71 83 89 104 112 106 103 107 105 117 143 124 122 117 113 103 93 82 82
7 8 8 7 14 42 55 39 46 57 69 89 82 99 86 39 16 37 41 45 46 55 50 73 78 88 87 92 102 104 101 95 112 92 104 117 118 116 106 103 100 89 82 83
8 3 6 9 12 23 57 32 55 74 75 88 81 78 44 24 39 52 60 72 69 74 71 82 89 95 92 103 119 133 115 96 106 115 116 115 111 103 96 90 85 84 81 79
15 4 4 13 14 41 17 61 69 86 84 88 99 73 40 53 54 66 69 75 73 66 84 93 97 98 95 110 118 118 107 103 106 105 99 98 96 92 88 81 75 71 67 62
10 9 2 10 25 18 41 73 68 80 80 87 89 65 45 68 68 81 67 79 87 95 100 96 96 106 98 107 105 99 98 95 97 98 94 89 87 86 82 78 74 58 56 58
Wind_Direction_500mb
233 132 242 244 236 256 263 267 266 274 283 285 286 281 289 287 270 277 283 290 291 294 294 278 244 222 223 217 223 223 216 207 203 199 194 192 194 194 194 197 200 198 200 202
354 244 247 249 248 252 248 260 268 271 260 272 281 277 282 273 248 262 270 277 284 286 287 282 256 209 219 222 209 209 215 206 201 200 195 191 190 192 193 194 199 202 206 211
233 251 295 284 276 258 246 254 272 277 290 271 299 286 280 267 267 261 263 271 272 271 272 273 275 249 237 221 217 210 214 209 204 198 193 188 188 186 183 191 194 199 205 217
274 303 309 295 278 260 270 270 280 308 307 283 176 277 276 260 261 253 263 263 265 266 265 268 262 252 240 232 224 219 216 215 204 200 194 187 184 189 188 207 198 199 193 210
262 320 313 301 263 219 252 320 269 285 273 289 235 253 274 210 251 255 246 250 261 265 260 252 238 232 247 257 226 225 217 214 207 205 206 202 207 209 194 191 200 198 205 202
263 295 233 246 298 153 237 356 313 300 154 245 239 218 273 241 251 242 253 256 261 266 266 264 262 248 224 240 226 222 224 221 217 216 212 210 202 200 201 195 197 197 203 194
314 246 280 194 320 354 36 27 317 326 224 244 321 236 245 270 265 235 249 268 275 276 271 264 258 253 236 214 227 224 229 231 223 214 207 208 207 204 204 204 199 195 199 196
333 313 251 200 274 294 289 172 202 245 234 265 329 255 249 228 251 250 261 285 282 275 271 269 273 258 238 221 224 221 231 233 228 214 206 208 214 215 213 211 203 202 202 197
311 263 299 286 285 163 255 171 207 267 273 267 223 285 304 266 256 260 283 299 302 275 263 277 283 266 251 234 218 220 216 231 234 221 215 217 206 210 212 208 210 204 195 193
239 290 278 287 288 239 207 186 358 186 257 259 254 245 243 296 285 295 291 293 335 327 300 281 288 267 252 243 229 219 216 227 231 222 211 208 208 209 217 216 210 190 185 185
218 218 279 340 223 209 150 207 212 228 209 252 300 232 221 231 246 235 305 313 338 331 329 306 287 284 243 233 225 218 214 216 224 223 214 206 208 212 217 218 204 182 177 180
210 244 272 261 278 275 197 238 190 257 262 234 262 268 241 262 200 298 311 339 339 320 323 325 302 276 261 225 224 217 209 210 220 218 212 203 205 203 211 213 188 184 182 204
177 241 299 282 3 16 93 184 243 245 271 252 253 254 299 3 323 309 305 313 316 314 315 321 325 303 251 252 222 213 207 208 210 204 206 198 195 197 197 189 180 174 184 201
157 239 240 278 278 276 271 266 261 250 245 263 250 271 280 291 286 293 305 310 326 314 302 309 321 316 253 251 213 206 202 204 198 198 201 195 188 193 183 180 176 177 190 191
164 247 258 262 264 269 269 267 265 254 254 250 270 277 285 280 283 292 300 305 311 309 299 298 317 317 257 234 215 194 203 195 190 194 193 191 194 192 187 180 172 182 192 183
168 276 299 291 259 264 269 265 252 257 246 265 273 273 278 281 278 275 284 298 292 289 291 291 307 319 279 214 199 189 190 190 185 184 183 185 184 178 186 189 186 183 175 172
215 275 305 290 298 300 281 327 84 280 251 263 271 287 298 289 277 289 293 287 278 275 279 283 296 300 216 203 189 175 180 182 182 171 175 178 178 175 170 187 177 166 169 167
209 257 260 288 311 270 145 112 308 252 273 286 282 284 292 285 289 286 280 271 267 261 266 268 276 257 188 187 178 170 179 179 175 170 169 173 175 175 185 175 163 164 164 164
215 263 287 287 286 274 227 116 315 311 304 298 281 303 311 306 302 287 271 265 255 252 247 249 250 199 148 173 165 161 168 161 168 166 170 173 174 170 164 160 155 160 161 160
206 241 239 306 283 282 84 300 299 305 276 67 330 302 290 296 280 274 297 278 305 239 229 210 227 169 149 139 150 150 151 153 147 150 154 170 169 163 155 160 157 159 161 157
307 300 251 270 261 272 145 342 318 285 296 308 298 292 291 279 253 265 278 279 271 230 193 194 187 166 147 137 136 135 143 150 151 146 144 154 155 151 157 157 157 160 160 151
294 309 281 267 274 291 335 340 338 290 301 301 305 303 300 296 286 264 258 237 216 180 174 179 165 161 150 144 138 137 136 139 139 139 143 141 144 153 158 153 154 157 152 153
281 224 282 234 264 290 313 313 301 308 300 308 312 315 316 323 58 92 128 143 146 155 164 147 141 141 143 140 141 129 132 137 138 144 141 140 146 155 151 149 150 148 152 152
267 224 252 319 276 309 313 313 318 323 317 320 322 319 327 99 89 100 118 129 125 128 134 129 128 125 124 134 137 134 142 143 141 144 146 146 144 144 144 147 148 148 152 154
273 350 264 261 299 315 302 325 330 332 342 338 345 2 111 94 83 114 121 133 133 136 125 126 124 126 125 133 138 146 153 155 147 142 139 138 140 141 144 142 144 148 152 157
205 235 210 296 326 299 305 325 337 340 342 356 353 15 86 103 98 108 114 126 123 126 126 122 118 123 124 137 146 151 155 155 147 142 140 139 139 138 138 136 134 136 141 144
Wind_Speed_850mb
11 5 14 24 21 31 22 28 35 31 32 33 44 50 46 35 39 35 52 57 56 53 41 30 13 6 24 28 22 41 74 81 84 77 71 69 64 54 48 44 48 52 44 37
7 13 24 20 18 21 25 32 35 28 29 27 35 52 38 29 20 45 52 54 61 63 54 33 23 15 21 35 38 46 65 79 85 79 72 68 66 57 47 47 48 51 51 45
13 20 19 24 29 28 21 22 27 24 16 18 26 56 37 28 29 40 52 64 71 71 65 57 43 32 27 37 47 56 61 76 88 81 69 65 62 54 48 46 44 48 52 50
12 13 36 29 32 23 28 9 12 20 14 25 18 35 55 23 41 32 42 55 68 73 71 67 54 40 37 31 51 64 71 69 90 86 85 85 82 77 52 44 53 49 46 51
14 26 39 21 15 4 11 8 3 13 23 9 21 12 55 16 25 24 27 57 74 74 65 50 42 37 35 42 40 63 78 82 89 96 95 89 82 85 69 70 65 59 54 43
19 49 8 8 7 5 6 7 32 9 3 14 20 29 39 25 27 14 29 48 61 68 70 68 62 51 39 49 44 51 70 78 98 96 103 87 86 81 81 81 80 65 61 51
31 6 12 7 7 10 14 13 9 9 5 13 12 18 33 13 23 20 19 37 56 63 66 62 54 48 50 56 52 44 55 81 89 101 103 91 87 80 83 78 76 66 63 57
8 26 5 7 12 19 24 14 8 12 7 9 11 17 11 23 29 41 39 37 51 59 60 51 56 52 50 61 62 51 45 78 91 105 112 101 89 88 79 79 72 70 72 64
13 16 21 37 41 11 7 8 8 11 19 16 10 13 18 26 24 16 21 33 37 48 52 39 47 61 57 60 68 65 62 70 87 103 110 110 92 84 86 80 78 76 76 68
11 35 18 9 7 18 23 8 2 6 8 11 8 8 16 18 9 8 12 16 28 28 29 40 35 43 60 68 66 77 75 64 90 96 104 108 94 91 83 77 79 84 74 64
7 12 18 15 11 9 3 5 10 7 8 7 10 8 13 20 21 11 13 21 28 35 39 31 28 26 39 57 75 74 89 74 84 97 100 95 90 92 79 78 75 75 68 45
14 9 20 18 47 19 7 10 10 7 6 9 9 27 22 12 6 5 10 19 25 33 43 45 38 29 23 48 62 81 95 74 80 93 95 89 88 84 79 75 82 71 41 36
8 7 9 8 6 9 3 4 7 13 16 34 24 15 2 11 14 14 16 29 33 41 49 55 48 33 40 35 63 84 97 82 83 87 87 85 82 84 82 75 82 55 47 44
15 4 13 21 32 21 29 32 33 27 12 28 33 55 37 38 36 27 46 41 48 49 57 57 60 48 34 40 73 86 94 88 80 83 89 94 86 86 79 82 59 57 52 61
8 8 15 32 43 43 44 45 40 38 37 30 39 31 34 39 31 26 32 42 42 46 63 57 58 52 28 47 68 84 86 82 82 81 84 89 94 92 85 66 60 69 74 71
7 8 22 33 34 44 47 44 39 38 23 25 33 48 40 34 20 29 34 49 49 52 61 60 50 37 20 46 78 91 84 78 87 89 82 88 98 93 76 88 93 92 88 79
5 6 14 15 16 38 21 5 5 5 15 18 31 48 37 29 29 29 57 55 60 58 71 65 40 29 46 67 71 67 75 73 86 98 100 107 117 110 94 97 103 96 88 82
8 6 6 15 17 9 4 6 5 15 34 36 44 39 20 19 46 69 78 72 74 60 70 54 32 25 41 57 72 70 77 84 92 106 115 125 128 119 123 129 108 96 88 81
12 3 9 8 12 35 16 3 8 18 66 32 9 22 45 77 67 81 71 73 81 74 64 40 29 34 59 69 75 82 85 79 91 114 128 129 138 142 130 114 104 97 90 82
5 10 6 8 10 10 2 9 24 30 23 6 36 59 53 48 26 38 37 21 30 50 51 41 28 49 63 81 82 88 99 103 92 89 100 137 137 139 107 99 102 97 85 82
11 9 10 16 12 16 3 27 23 9 17 51 71 70 59 37 44 84 83 73 47 44 45 43 42 67 82 90 99 98 94 110 99 84 91 138 134 125 112 115 103 95 90 78
7 10 5 7 9 12 23 24 22 20 73 78 90 76 67 73 73 61 58 35 33 51 51 50 72 71 83 89 104 112 106 103 107 105 117 143 124 122 117 113 103 93 82 82
7 8 8 7 14 42 55 39 46 57 69 89 82 99 86 39 16 37 41 45 46 55 50 73 78 88 87 92 102 104 101 95 112 92 104 117 118 116 106 103 100 89 82 83
8 3 6 9 12 23 57 32 55 74 75 88 81 78 44 24 39 52 60 72 69 74 71 82 89 95 92 103 119 133 115 96 106 115 116 115 111 103 96 90 85 84 81 79
15 4 4 13 14 41 17 61 69 86 84 88 99 73 40 53 54 66 69 75 73 66 84 93 97 98 95 110 118 118 107 103 106 105 99 98 96 92 88 81 75 71 67 62
10 9 2 10 25 18 41 73 68 80 80 87 89 65 45 68 68 81 67 79 87 95 100 96 96 106 98 107 105 99 98 95 97 98 94 89 87 86 82 78 74 58 56 58
Wind_Direction_850mb
233 132 242 244 236 256 263 267 266 274 283 285 286 281 289 287 270 277 283 290 291 294 294 278 244 222 223 217 223 223 216 207 203 199 194 192 194 194 194 197 200 198 200 202
354 244 247 249 248 252 248 260 268 271 260 272 281 277 282 273 248 262 270 277 284 286 287 282 256 209 219 222 209 209 215 206 201 200 195 191 190 192 193 194 199 202 206 211
233 251 295 284 276 258 246 254 272 277 290 271 299 286 280 267 267 261 263 271 272 271 272 273 275 249 237 221 217 210 214 209 204 198 193 188 188 186 183 191 194 199 205 217
274 303 309 295 278 260 270 270 280 308 307 283 176 277 276 260 261 253 263 263 265 266 265 268 262 252 240 232 224 219 216 215 204 200 194 187 184 189 188 207 198 199 193 210
262 320 313 301 263 219 252 320 269 285 273 289 235 253 274 210 251 255 246 250 261 265 260 252 238 232 247 257 226 225 217 214 207 205 206 202 207 209 194 191 200 198 205 202
263 295 233 246 298 153 237 356 313 300 154 245 239 218 273 241 251 242 253 256 261 266 266 264 262 248 224 240 226 222 224 221 217 216 212 210 202 200 201 195 197 197 203 194
314 246 280 194 320 354 36 27 317 326 224 244 321 236 245 270 265 235 249 268 275 276 271 264 258 253 236 214 227 224 229 231 223 214 207 208 207 204 204 204 199 195 199 196
333 313 251 200 274 294 289 172 202 245 234 265 329 255 249 228 251 250 261 285 282 275 271 269 273 258 238 221 224 221 231 233 228 214 206 208 214 215 213 211 203 202 202 197
311 263 299 286 285 163 255 171 207 267 273 267 223 285 304 266 256 260 283 299 302 275 263 277 283 266 251 234 218 220 216 231 234 221 215 217 206 210 212 208 210 204 195 193
239 290 278 287 288 239 207 186 358 186 257 259 254 245 243 296 285 295 291 293 335 327 300 281 288 267 252 243 229 219 216 227 231 222 211 208 208 209 217 216 210 190 185 185
218 218 279 340 223 209 150 207 212 228 209 252 300 232 221 231 246 235 305 313 338 331 329 306 287 284 243 233 225 218 214 216 224 223 214 206 208 212 217 218 204 182 177 180
210 244 272 261 278 275 197 238 190 257 262 234 262 268 241 262 200 298 311 339 339 320 323 325 302 276 261 225 224 217 209 210 220 218 212 203 205 203 211 213 188 184 182 204
177 241 299 282 3 16 93 184 243 245 271 252 253 254 299 3 323 309 305 313 316 314 315 321 325 303 251 252 222 213 207 208 210 204 206 198 195 197 197 189 180 174 184 201
157 239 240 278 278 276 271 266 261 250 245 263 250 271 280 291 286 293 305 310 326 314 302 309 321 316 253 251 213 206 202 204 198 198 201 195 188 193 183 180 176 177 190 191
164 247 258 262 264 269 269 267 265 254 254 250 270 277 285 280 283 292 300 305 311 309 299 298 317 317 257 234 215 194 203 195 190 194 193 191 194 192 187 180 172 182 192 183
168 276 299 291 259 264 269 265 252 257 246 265 273 273 278 281 278 275 284 298 292 289 291 291 307 319 279 214 199 189 190 190 185 184 183 185 184 178 186 189 186 183 175 172
215 275 305 290 298 300 281 327 84 280 251 263 271 287 298 289 277 289 293 287 278 275 279 283 296 300 216 203 189 175 180 182 182 171 175 178 178 175 170 187 177 166 169 167
209 257 260 288 311 270 145 112 308 252 273 286 282 284 292 285 289 286 280 271 267 261 266 268 276 257 188 187 178 170 179 179 175 170 169 173 175 175 185 175 163 164 164 164
215 263 287 287 286 274 227 116 315 311 304 298 281 303 311 306 302 287 271 265 255 252 247 249 250 199 148 173 165 161 168 161 168 166 170 173 174 170 164 160 155 160 161 160
206 241 239 306 283 282 84 300 299 305 276 67 330 302 290 296 280 274 297 278 305 239 229 210 227 169 149 139 150 150 151 153 147 150 154 170 169 163 155 160 157 159 161 157
307 300 251 270 261 272 145 342 318 285 296 308 298 292 291 279 253 265 278 279 271 230 193 194 187 166 147 137 136 135 143 150 151 146 144 154 155 151 157 157 157 160 160 151
294 309 281 267 274 291 335 340 338 290 301 301 305 303 300 296 286 264 258 237 216 180 174 179 165 161 150 144 138 137 136 139 139 139 143 141 144 153 158 153 154 157 152 153
281 224 282 234 264 290 313 313 301 308 300 308 312 315 316 323 58 92 128 143 146 155 164 147 141 141 143 140 141 129 132 137 138 144 141 140 146 155 151 149 150 148 152 152
267 224 252 319 276 309 313 313 318 323 317 320 322 319 327 99 89 100 118 129 125 128 134 129 128 125 124 134 137 134 142 143 141 144 146 146 144 144 144 147 148 148 152 154
273 350 264 261 299 315 302 325 330 332 342 338 345 2 111 94 83 114 121 133 133 136 125 126 124 126 125 133 138 146 153 155 147 142 139 138 140 141 144 142 144 148 152 157
205 235 210 296 326 299 305 325 337 340 342 356 353 15 86 103 98 108 114 126 123 126 126 122 118 123 124 137 146 151 155 155 147 142 140 139 139 138 138 136 134 136 141 144